Location: Les Moreaux
(47.2278°N, 1.4966°E)
Time: 14:27:56
(UTC+00:00)

Helios 1B rocket - Pass Details

Date: 19 May 2025
Orbit: 497 x 502 km, 98.2° (Epoch: 17 June)

Event Time Altitude Azimuth Distance (km) Brightness Sun altitude
Exits shadow 20:49:43 - 196° (SSW) 2,510 5.4 -11.5°
Reaches altitude 10° 20:51:56 10° 210° (SSW) 1,696 4.6 -11.7°
Maximum altitude 20:54:54 23° 265° (W) 1,097 4.3 -12.1°
Drops below altitude 10° 20:57:53 10° 319° (NW) 1,711 6.4 -12.4°
Sets 21:00:18 0° 334° (NNW) 2,602 7.4 -12.7°
